Weather History for Belgrade Nikola Tesla, Serbia

Change the Weather History Date:

Monday, September 24, 2012

  Actual Average Record
Temperature  
Mean Temperature 72 °F -  
Max Temperature 89 °F 64 °F 89 °F (2012)
Min Temperature 56 °F 46 °F 42 °F (1997)
Cooling Degree Days 8    
Growing Degree Days 22 (Base 50)    
Moisture  
Dew Point 54 °F    
Average Humidity 54    
Maximum Humidity 94    
Minimum Humidity 22    
Precipitation  
Precipitation 0.00 in - - ()
Sea Level Pressure  
Sea Level Pressure 29.82 in    
Wind  
Wind Speed 5 mph ()    
Max Wind Speed 10 mph    
Max Gust Speed -    
Visibility 9.2 miles    
Events      
Averages and records for this station are not official NWS values.
T = Trace of Precipitation, MM = Missing Value Source: Averaged Metar Reports

Daily Weather History Graph

Daily Weather History Graph

Search for Another Location

Airport:

Trip Planner

Search our weather history database for the weather conditions in past years. The results will help you decide how hot, cold, wet, or windy it might be!

Date:

Astronomy

Sep. 24, 2012 Rise Set
Actual Time 6:28 AM CEST 6:32 PM CEST
Civil Twilight 5:59 AM CEST 7:01 PM CEST
Nautical Twilight 5:25 AM CEST 7:35 PM CEST
Astronomical Twilight 4:50 AM CEST 8:10 PM CEST
Moon 3:16 PM CEST 12:11 AM CEST
Length of Visible Light 13h 01m
Length of Day
12h 03m
Waxing Gibbous, 68% of the Moon is Illuminated
Sep 24
Waxing Gibbous
Sep 30
Full
Oct 8
Last Quarter
Oct 15
New
Oct 22
First Quarter

Hourly Weather History & Observations

Time (CEST) Temp. Heat Index Dew Point Humidity Pressure Visibility Wind Dir Wind Speed Gust Speed Precip Events Conditions
12:00 AM 64.4 °F - 57.2 °F 77% 29.98 in - East 3.5 mph - N/A   Clear
12:30 AM 64.4 °F - 57.2 °F 77% 29.98 in - ESE 5.8 mph - N/A   Clear
1:00 AM 64.4 °F - 57.2 °F 77% 29.98 in - SE 6.9 mph - N/A   Clear
1:30 AM 68.0 °F - 53.6 °F 60% 29.98 in - SSE 6.9 mph - N/A   Clear
2:00 AM 66 °F - 54 °F 57% 29.97 in 12 mi SE 4.5 mph - -   Scattered Clouds
2:00 AM 66.2 °F - 53.6 °F 64% 29.95 in - SE 6.9 mph - N/A   Clear
2:30 AM 66.2 °F - 53.6 °F 64% 29.95 in - SSE 4.6 mph - N/A   Clear
3:00 AM 64.4 °F - 53.6 °F 68% 29.95 in - SSE 5.8 mph - N/A   Clear
3:30 AM 64.4 °F - 53.6 °F 68% 29.95 in - SSE 3.5 mph - N/A   Clear
4:00 AM 60.8 °F - 53.6 °F 77% 29.92 in - East 3.5 mph - N/A   Clear
4:30 AM 59.0 °F - 55.4 °F 88% 29.92 in - ENE 3.5 mph - N/A   Clear
5:00 AM 60 °F - 56 °F 83% 29.91 in 12 mi ENE 2.2 mph - -  
5:00 AM 59.0 °F - 57.2 °F 94% 29.92 in - East 3.5 mph - N/A   Clear
5:30 AM 57.2 °F - 55.4 °F 94% 29.89 in - ENE 2.3 mph - N/A   Clear
6:00 AM 59.0 °F - 55.4 °F 88% 29.89 in - East 2.3 mph - N/A   Clear
6:30 AM 57.2 °F - 55.4 °F 94% 29.89 in 3.7 mi ENE 2.3 mph - N/A   Unknown
7:00 AM 57.2 °F - 55.4 °F 94% 29.89 in 3.7 mi East 3.5 mph - N/A   Unknown
7:30 AM 60.8 °F - 57.2 °F 88% 29.89 in 3.7 mi ESE 3.5 mph - N/A   Unknown
8:00 AM 61 °F - 56 °F 80% 29.90 in 6 mi Calm Calm - -  
8:00 AM 60.8 °F - 57.2 °F 88% 29.89 in - Variable 1.2 mph - N/A   Clear
8:30 AM 66.2 °F - 53.6 °F 64% 29.89 in - South 3.5 mph - N/A   Clear
9:00 AM 68.0 °F - 53.6 °F 60% 29.89 in - South 4.6 mph - N/A   Clear
9:30 AM 69.8 °F - 51.8 °F 53% 29.89 in - SSW 6.9 mph - N/A   Clear
10:00 AM 73.4 °F - 53.6 °F 50% 29.89 in - South 6.9 mph - N/A   Clear
10:30 AM 75.2 °F - 53.6 °F 47% 29.86 in - South 4.6 mph - N/A   Clear
11:00 AM 78 °F - 53 °F 31% 29.87 in 12 mi SSW 4.5 mph - -  
11:00 AM 78.8 °F - 53.6 °F 42% 29.86 in - SW 5.8 mph - N/A   Clear
11:30 AM 80.6 °F 80.3 °F 53.6 °F 39% 29.86 in - Variable 5.8 mph - N/A   Clear
12:00 PM 82.4 °F - 51.8 °F 35% 29.86 in - SSW 4.6 mph - N/A   Clear
12:30 PM 84.2 °F - 51.8 °F 33% 29.83 in - SW 6.9 mph - N/A   Clear
1:00 PM 84.2 °F 82.8 °F 53.6 °F 35% 29.83 in - WSW 8.1 mph - N/A   Clear
1:30 PM 86.0 °F 84.2 °F 53.6 °F 33% 29.80 in - WSW 8.1 mph - N/A   Clear
2:00 PM 86 °F - 54 °F 23% 29.79 in 12 mi SSW 4.5 mph - -  
2:00 PM 86.0 °F 84.2 °F 53.6 °F 33% 29.80 in - SW 4.6 mph - N/A   Clear
2:30 PM 86.0 °F 84.2 °F 53.6 °F 33% 29.80 in - South 6.9 mph - N/A   Clear
3:00 PM 87.8 °F 85.7 °F 53.6 °F 31% 29.77 in - SSE 5.8 mph - N/A   Clear
3:30 PM 87.8 °F 85.7 °F 53.6 °F 31% 29.77 in - SSE 5.8 mph - N/A   Clear
4:00 PM 87.8 °F 85.7 °F 53.6 °F 31% 29.74 in - SSE 3.5 mph - N/A   Clear
4:30 PM 87.8 °F 85.7 °F 53.6 °F 31% 29.74 in - ESE 6.9 mph - N/A   Clear
5:00 PM 88 °F - 54 °F 22% 29.72 in 12 mi ESE 6.7 mph - -   Clear
5:00 PM 87.8 °F 85.7 °F 53.6 °F 31% 29.71 in - ESE 6.9 mph - N/A   Clear
5:30 PM 86.0 °F 84.5 °F 55.4 °F 35% 29.71 in - East 8.1 mph - N/A   Clear
6:00 PM 82.4 °F 81.7 °F 55.4 °F 39% 29.71 in - East 5.8 mph - N/A   Clear
6:30 PM 80.6 °F 80.5 °F 55.4 °F 42% 29.71 in - East 8.1 mph - N/A   Clear
7:00 PM 77.0 °F - 55.4 °F 47% 29.71 in - East 5.8 mph - N/A   Clear
7:30 PM 77.0 °F - 55.4 °F 47% 29.71 in - East 6.9 mph - N/A   Clear
8:00 PM 74 °F - 56 °F 44% 29.70 in 12 mi ESE 6.7 mph - -   Clear
8:00 PM 73.4 °F - 55.4 °F 53% 29.68 in - ESE 8.1 mph - N/A   Clear
8:30 PM 75.2 °F - 53.6 °F 47% 29.68 in - SE 8.1 mph - N/A   Clear
9:00 PM 75.2 °F - 53.6 °F 47% 29.68 in - SSE 10.4 mph - N/A   Clear
9:30 PM 78.8 °F - 53.6 °F 42% 29.68 in - SSE 9.2 mph - N/A   Clear
10:00 PM 77.0 °F - 53.6 °F 44% 29.68 in - South 9.2 mph - N/A   Clear
10:30 PM 77.0 °F - 51.8 °F 41% 29.68 in - South 10.4 mph - N/A   Clear
11:00 PM 78 °F - 51 °F 29% 29.68 in 12 mi South 8.9 mph - -   Clear
11:00 PM 77.0 °F - 51.8 °F 41% 29.68 in - South 10.4 mph - N/A   Clear
11:30 PM 75.2 °F - 51.8 °F 44% 29.68 in - South 8.1 mph - N/A   Clear